Simultaneous Nadir Overpasses (SNOs) Predictions

Prediction of SNOs between GOES-15 and METOP-B Satellite Orbit:

Table of predicted SNOs for the next 14.0 days since TLE Epoch: 5/21/2022
Index Date Time (GOES-15) GOES-15 Lat,Lon METOP-B Lat,Lon Distance(km) Time Diff (sec)
1 05/21/2022 18:17:27 -0.21,-127.68 0.61,-131.40 424.63 80
2 05/22/2022 17:54:09 -0.21,-127.72 -0.52,-126.42 148.50 80
3 05/24/2022 06:15:50 0.21,-127.74 -0.51,-131.02 372.98 80
4 05/25/2022 05:52:32 0.22,-127.78 0.62,-126.03 199.98 80
5 05/26/2022 18:14:04 -0.21,-127.88 0.39,-130.59 309.53 80
6 05/27/2022 17:50:46 -0.22,-127.91 -0.76,-125.61 263.48 80
7 05/29/2022 06:12:27 0.21,-127.94 -0.27,-130.21 258.30 80
8 05/30/2022 05:49:07 0.22,-127.97 0.82,-125.21 314.04 80
9 05/31/2022 18:10:40 -0.21,-128.05 0.18,-129.78 196.66 80
10 06/01/2022 17:47:21 -0.22,-128.09 -0.97,-124.79 375.52 80
11 06/03/2022 06:09:02 0.22,-128.10 -0.04,-129.39 147.05 80
